Find WHDW 14-03

NORAD ID: 66917 Int'l Des: 2025-285 Owner: ZXW Country: CN Constellation: xingwang operational
LEOCIRCULAR

Aktuelle Ansicht

3D-Globus wird geladen...

Über WHDW 14-03

Beschreibung wird geladen...

Nächste Überflüge

Passes for default location (London). Set your location on the main map for personalized predictions.

Höhenverlauf

Loading altitude history...

Zweizeiliger Elementsatz

1 66917U 25285C 26145.60539762 -.00000104 00000-0 44011-4 0 9997
2 66917 50.0022 227.0292 0001065 214.5040 145.5764 13.29325468 23057
Epoch: 25. Mai 2026 • Age: 15 hours

Aktueller Status

Höhe 1149.3 km
Geschwindigkeit 7.28 km/s
Subsatellitenpunkt -0.80°S, 73.52°E
Startdatum 6. Dez. 2025
Alter 0.4 years
Typ other

Technische Details

Klassifizierung Payload
Masse 700.00 kg
Trockenmasse 700.00 kg
Gesamtmasse 700.00 kg
Länge 3.00 m
Durchmesser 1.00 m
Spannweite 10.00 m
Form Box + 2 Pan
Hersteller CAST
Bus-Typ Xingwang C
Phasenstatus In Orbit
Besitzer/Staat ZXW/CN

Most Searched